Weather in Baykalovo

Russia / Tyumen Oblast     57°46′32″N   67°38′24″E
temp.,
°C
wind,
m/s
gust,
m/s
humid.,
%
clouds,
%
prec.,
mm/h
press.,
hPa
HPBL,
m
14 june, mon
mon1423:00+16w22699 0.0 102324
02:00+15wsw226974 0.0 102225
05:00+15sw227099 0.0 102332
08:00+22sw354814 0.0 1023419
11:00+27wsw4533100 0.0 10221976
14:00+29wsw462512 0.0 10202697
17:00+29wsw472626 0.0 10192995
20:00+24sw37485 0.0 1018171
15 june, tue
tue1523:00+19sw396137 0.0 1018139
02:00+17sw41167100 0.1 1017198
05:00+16sw31090100 1.6 1016191
08:00+20sw4975100 0.4 1016287
11:00+28sw583588 0.4 10141016
14:00+30wsw71029100 0.0 10122762
17:00+27w3646100 0.0 1012769
20:00+24w5115276 0.0 1011587
16 june, wed
wed1623:00+17w2392100 0.7 101252
02:00+16wsw3109537 0.3 1012182
05:00+16w2694100 0.3 1012130
08:00+22w367180 0.0 1012419
11:00+27wnw464697 0.0 10111794
14:00+25nw345483 0.0 1011705
17:00+25w245665 0.0 1010623
20:00+23nne24580 0.0 101086
17 june, thu
thu1723:00+17ese22710 0.0 101119
02:00+15sse22750 0.0 101032
05:00+16sse257727 0.0 100997
08:00+24ssw466225 0.0 1007594
11:00+28ssw45485 0.0 10051511
14:00+31sw46335 0.0 10032520
17:00+31wsw463167 0.0 10012646
20:00+25ssw5115556 0.1 1000473
18 june, fri
fri1823:00+17w369485 2.8 1000130
02:00+13nnw61097100 0.6 1001527
05:00+9nw61397100 1.4 1003699
08:00+7nnw71293100 1.6 1005839
11:00+8nw71181100 1.6 10071046
14:00+8nw71172100 0.1 10081293
17:00+8nnw71774100 0.1 10101392
20:00+9n5136656 0.0 10101194